"Pseudo-MPEC" for P11bX5O

Created 2021 Jan 23 1:07:11 UT using Find_Orb

Click here for an explanation of pseudo-MPECs

 
 Astrometry: 
     P11bX5O  C2020 12 12.49752 11 21 15.75 +14 46 07.4    ~1I1M 21.9 GVNEOCPG96
     P11bX5O  C2020 12 12.50703 11 21 15.72 +14 46 08.4    ~1I1M       VNEOCPG96
     P11bX5O  C2020 12 12.51176 11 21 15.59 +14 46 10.3    ~1I1M       VNEOCPG96
     P11bX5O  C2020 12 24vCr?=-oBE%UY7Q@Xw./Yq(myes*#pMOiD]_f(Astrometryv;U'\F52
     P11bX5O  C2020 12 243$jPh#V9_6`^UYBY)I.snE24MP0i,8%spII^LYQeI7I%qF8ToM=FF52
     P11bX5O  C2021 01 09.45151 11 13 48.87 +15 38 58.2    ~1D9b       VNEOCPG96
     P11bX5O  C2021 01 09.45667 11 13 48.76 +15 38 58.1    ~1D9b 21.6 GVNEOCPG96
     P11bX5O  C2021 01 09.46183 11 13 48.61 +15 38 58.2    ~1D9b       VNEOCPG96
     P11bX5O  C2021 01 09.46699 11 13 48.45 +15 38 59.2    ~1D9b       VNEOCPG96
     P11bX5O  C2021 01 12_RsjP.AI%jM=p,I50`951_'f.'mLM-X!wN=M]9v]I3.0\C@w\/.AF51
     P11bX5O  C2021 01 12jNPqBVyOhLqSS0OIHS]V=sy7p\F%WjSaaO=:$+:*2]/v3YD@]5TtF51
     P11bX5O  C2021 01 12`6teGdr/%HL@2Z1hFnww[Vu!redacted;LP^b*XHtRgAp9Pv;WBCF51
     P11bX5O  C2021 01 12P-1Q!.N7?I8kyQ-]//WPSfj]b_:$[7/hH`D14[P7MAk$ONh^`*59F51
     P11bX5O KC2021 01 13.34894011 12 17.79 +15 48 37.5    ~1D97 20.97GVNEOCPI52
     P11bX5O KC2021 01 13.35671711 12 17.62 +15 48 39.2    ~1D97 21.07GVNEOCPI52
     P11bX5O KC2021 01 13.36450811 12 17.43 +15 48 40.7    ~1D97 21.18GVNEOCPI52
     P11bX5O KC2021 01 14pYv3rkkT(vQ`@tUlf)gW-p+u/kYx^*W[=OL.]T/Z_IT!xdGdmiuTH21
     P11bX5O KC2021 01 14_Z*nL=ldG#E-K'jZ6$s93O7wvUj?Px%1(M7t!GQ!@^LG)`7aZPt/H21
     P11bX5O KC2021 01 14hq_w;%Nn^_PevP_Qx7ROY?2sVtS,HNtL5[]s94^idD@5M4`SQY/KH21
     P11bX5O ^C2021 01 15.46258311 11 25.529+15 54 04.88   ~1FDq 21.02GVNEOCP568
     P11bX5O ^C2021 01 15.46379611 11 25.497+15 54 05.08   ~1FDq 21.06GVNEOCP568
     P11bX5O ^C2021 01 15.46500911 11 25.469+15 54 05.31   ~1FDq 21.09GVNEOCP568
     P11bX5O KC2021 01 153pM)DG+J7@Jt9=.x,Mv'Ce.2)neZMO_:y3DCZ)nq$rF=6Tov[E#%N51
     P11bX5O KC2021 01 15017:YVta_ZU^GS\'7PS;y2l-(iCMF82mRkILRc`.G-;)iR3vmju\N51
     P11bX5O KC2021 01 15\b%%iL''^tY)x`\aDbb_F+83'_#Ve:8'?rqkSR)(f3ZIAG]B`]MRN51
     P11bX5O KC2021 01 15q.8NdWhW_.)0S\b](px.ssi@11n9YeGq:2N\CgDLQxbn5'v+Y+XSN51
     P11bX5O KC2021 01 15txd_$2x7xF.l27(UXM[0KC$`$TEclick8_#E3UcsYuqqsqY?)JH^N51
     P11bX5O KC2021 01 15)u?m=K:u%93?pX,KA%^=Q/jHi0,m2jvadC;[n/VtHjmyCDY[;dk+N51
     P11bX5O MC2021 01 16f4or''=XB'!]bplrDnbkfejcc#E$g6/T$YLhere+:i=]J?tfiA_gL01
     P11bX5O MC2021 01 165GXVfH?)Ld-mTqGXPNj=['BT.Cwm0foBB5E?qZL5wfG':er1!S-UL01
     P11bX5O *C2021 01 16US,c=sX`on+1gVlmt'k:(rTnD@ox'$-CW:-ug?[\gfnTv`pAG1I?E10
     P11bX5O *C2021 01 16?q9@pAE#dVqK+^EfA2,iA()wSJDdM=]E[w?Q/\ub?-G:s-)nj2kCE10
     P11bX5O *C2021 01 166iac-DbhA(t9)POc8V(yWBL%ub7@+M0Fk=E-_@iYZjd?ZVOU`9[%E10
     P11bX5O |C2021 01 17VgVwM]-M($r6c9%wMIm7iMGrDYfor]7^!n%1E,I,ZQ0,Asy!JLJ=H06
     P11bX5O |C2021 01 179Ed2i@EX](bm%I1)HuiCniDsook3b6QtZexplanationrs`*VBd?H06
     P11bX5O  C2021 01 18.49790811 10 06.99 +16 02 06.4    ~1K1q 21.10GVNEOCPG96
     P11bX5O  C2021 01 18.50298711 10 06.86 +16 02 07.0    ~1K1q 21.41GVNEOCPG96
     P11bX5O  C2021 01 18.50807711 10 06.73 +16 02 08.2    ~1K1q 21.44GVNEOCPG96
     P11bX5O  C2021 01 18.51315211 10 06.59 +16 02 08.7    ~1K1q 20.98GVNEOCPG96

Station data:
(568) Mauna Kea  (N19.826116 W155.472200)  US/Hawaii.
(E10) Siding Spring-Faulkes Telescope South  (S31.273173 E149.070280)
   Australia/NSW.
(F51) Pan-STARRS 1, Haleakala  (N20.707235 W156.255910)  US/Hawaii.
   Observers N. Primak, A. Schultz, S. Watters, J. Thiel, T. Goggia. Measurer
   PS1 Science Consortium. 1.8-m Ritchey-Chrétien + CCD.
(F52) Pan-STARRS 2, Haleakala  (N20.707384 W156.255910)  US/Hawaii. 1.8-m
   Ritchey-Chrétien + CCD.
(G96) Mt. Lemmon Survey  (N32.442754 W110.788720)  US/Arizona.  Observers T.
   A. Pruyne, B. M. Africano, E. J. Christensen, G. A. Farneth, D. C. Fuls,
   A. R. Gibbs, A. D. Grauer, H. Gröller, J. A. Johnson, R. A. Kowalski, S.
   M. Larson, G. J. Leonard, D. Rankin, R. L. Seaman, F. C. Shelly. 1.5-m
   reflector + 10K CCD.
(H06) RAS Observatory, Mayhill  (N32.903325 W105.528700)  US/New
   Mexico.  Observers E. Guido, G. Sostero, V. Gonano, L. Donato.
(H21) Astronomical Research Observatory, Westfield  (N39.483057 W87.968270)
   US/Illinois. 0.76-m f/3.0 astrograph + CCD.
(I52) Steward Observatory, Mt. Lemmon Station  (N32.442547 W110.788920)
   US/Arizona.  Observers T. A. Pruyne, B. M. Africano, E. J. Christensen, G.
   A. Farneth, D. C. Fuls, A. R. Gibbs, A. D. Grauer, H. Gröller, J. A.
   Johnson, R. A. Kowalski, S. M. Larson, G. J. Leonard, D. Rankin, R. L.
   Seaman, F. C. Shelly. 1.0-m reflector + CCD.
(L01) Višnjan Observatory, Tičan  (N45.290900 E13.749300)  Croatia.
   Observers K. Korlević, E. Pettarin. Measurer E. Pettarin. 1.0-m f/2.9
   reflector + CCD.
(N51) GROWTH India Telescope, IAO, Hanle  (N32.779244 E78.964610)  India.

Orbital elements:  P11bX5O
   Perihelion 2023 Dec 7.473057 TT = 11:21:12 (JD 2460285.973057)
Epoch 2021 Jan 18.0 TT = JDT 2459232.5   Sa: 0.4898           AutoNEOCP
M 359.84047126                      (J2000 ecliptic)
n   0.00015143     Peri.  211.23643
a 348.598665       Node   314.90027
e   0.9776094      Incl.  157.98025
P6508.61           H   11.2     G   0.15   q 7.80531712  Q 689.392013
From 39 observations 2020 Dec. 12-2021 Jan. 18; mean residual 0".37
Residuals in arcseconds: 
201212 G96  .09-  .68-    210113 I52  .10-  .77-    210115 N51  .32-  .27-    
201212 G96  .83+  .43-    210113 I52  .20+  .27-    210115 N51  .21-  .19+    
201212 G96  .38-  1.1+    210113 I52  .22+  .04+    210116 L01  .91+  .42-    
201224 F52  .58-  .18+    210114 H21  .26+  .20-    210116 L01  .31+  .13-    
201224 F52  .00   .14-    210114 H21  .63+  .30+    210116 E10  .22-  .65+    
210109 G96  .16+  1.1+    210114 H21  .64+  .12+    210116 E10  .17-  .02-    
210109 G96  .27+  .22+    210115 568  .16-  .09-    210116 E10  .35+  .64+    
210109 G96  .19-  .43-    210115 568  .18-  .08-    210117 H06  .01+  .26-    
210109 G96  .80-  .18-    210115 568  .14-  .05-    210117 H06  .22+  .36-    
210112 F51  .03+  .08-    210115 N51  .20-  .25+    210118 G96  .19-  .16+    
210112 F51  .02+  .14-    210115 N51  .33-  .05+    210118 G96  .10-  .05-    
210112 F51  .11+  .17-    210115 N51  .41-  .03+    210118 G96  .00   .33+    
210112 F51  .14+  .01-    210115 N51  .49-  .10-    210118 G96  .06-  .01+    

Ephemerides (geocentric):
Date (UTC) HH   RA              Dec         delta   r     elong  mag
---- -- -- --  -------------   -----------  ------ ------ -----  ---
2021 01 23 01  11 08 02.261   +16 14 31.28  9.2108 9.9869 140.2 21.3
2021 01 23 02  11 08 01.078   +16 14 38.23  9.2101 9.9868 140.3 21.3
2021 01 23 03  11 07 59.894   +16 14 45.18  9.2095 9.9866 140.3 21.3
2021 01 23 04  11 07 58.710   +16 14 52.13  9.2089 9.9865 140.3 21.3
2021 01 23 05  11 07 57.524   +16 14 59.08  9.2083 9.9863 140.4 21.3
2021 01 23 06  11 07 56.338   +16 15 06.04  9.2077 9.9862 140.4 21.3
2021 01 23 07  11 07 55.152   +16 15 12.99  9.2071 9.9860 140.5 21.3
2021 01 23 08  11 07 53.964   +16 15 19.95  9.2064 9.9859 140.5 21.3
2021 01 23 09  11 07 52.776   +16 15 26.91  9.2058 9.9857 140.6 21.3
2021 01 23 10  11 07 51.588   +16 15 33.88  9.2052 9.9856 140.6 21.3
2021 01 23 11  11 07 50.398   +16 15 40.84  9.2046 9.9854 140.7 21.3
2021 01 23 12  11 07 49.208   +16 15 47.81  9.2040 9.9853 140.7 21.3
2021 01 23 13  11 07 48.018   +16 15 54.78  9.2034 9.9851 140.8 21.3
2021 01 23 14  11 07 46.826   +16 16 01.75  9.2028 9.9850 140.8 21.3
2021 01 23 15  11 07 45.634   +16 16 08.72  9.2022 9.9848 140.9 21.3
2021 01 23 16  11 07 44.441   +16 16 15.69  9.2016 9.9847 140.9 21.3
2021 01 23 17  11 07 43.248   +16 16 22.67  9.2009 9.9845 140.9 21.3
2021 01 23 18  11 07 42.053   +16 16 29.65  9.2003 9.9844 141.0 21.3
2021 01 23 19  11 07 40.858   +16 16 36.63  9.1997 9.9842 141.0 21.3
2021 01 23 20  11 07 39.663   +16 16 43.61  9.1991 9.9841 141.1 21.3
2021 01 23 21  11 07 38.466   +16 16 50.60  9.1985 9.9839 141.1 21.3
2021 01 23 22  11 07 37.270   +16 16 57.58  9.1979 9.9838 141.2 21.3
2021 01 23 23  11 07 36.072   +16 17 04.57  9.1973 9.9836 141.2 21.3
2021 01 24 00  11 07 34.874   +16 17 11.56  9.1967 9.9835 141.3 21.3
2021 01 24 01  11 07 33.674   +16 17 18.55  9.1961 9.9834 141.3 21.3
2021 01 24 02  11 07 32.475   +16 17 25.54  9.1955 9.9832 141.4 21.3
2021 01 24 03  11 07 31.274   +16 17 32.54  9.1949 9.9831 141.4 21.3
2021 01 24 04  11 07 30.073   +16 17 39.53  9.1943 9.9829 141.4 21.3
2021 01 24 05  11 07 28.872   +16 17 46.53  9.1937 9.9828 141.5 21.3
2021 01 24 06  11 07 27.669   +16 17 53.53  9.1931 9.9826 141.5 21.3
2021 01 24 07  11 07 26.466   +16 18 00.54  9.1925 9.9825 141.6 21.3
2021 01 24 08  11 07 25.262   +16 18 07.54  9.1918 9.9823 141.6 21.3
2021 01 24 09  11 07 24.058   +16 18 14.55  9.1912 9.9822 141.7 21.3
2021 01 24 10  11 07 22.852   +16 18 21.55  9.1906 9.9820 141.7 21.3
2021 01 24 11  11 07 21.647   +16 18 28.56  9.1900 9.9819 141.8 21.3
2021 01 24 12  11 07 20.440   +16 18 35.57  9.1894 9.9817 141.8 21.3
2021 01 24 13  11 07 19.233   +16 18 42.59  9.1888 9.9816 141.9 21.3
2021 01 24 14  11 07 18.025   +16 18 49.60  9.1882 9.9814 141.9 21.3
2021 01 24 15  11 07 16.816   +16 18 56.62  9.1876 9.9813 141.9 21.3
2021 01 24 16  11 07 15.607   +16 19 03.64  9.1870 9.9811 142.0 21.3
2021 01 24 17  11 07 14.397   +16 19 10.66  9.1864 9.9810 142.0 21.3
2021 01 24 18  11 07 13.187   +16 19 17.68  9.1858 9.9808 142.1 21.3
2021 01 24 19  11 07 11.975   +16 19 24.70  9.1853 9.9807 142.1 21.3
2021 01 24 20  11 07 10.763   +16 19 31.73  9.1847 9.9805 142.2 21.3
2021 01 24 21  11 07 09.551   +16 19 38.76  9.1841 9.9804 142.2 21.3
2021 01 24 22  11 07 08.337   +16 19 45.79  9.1835 9.9802 142.3 21.3
2021 01 24 23  11 07 07.123   +16 19 52.82  9.1829 9.9801 142.3 21.3
2021 01 25 00  11 07 05.909   +16 19 59.85  9.1823 9.9799 142.4 21.3